Reynosa International Air, Mexico

9:32 PM EST on September 24, 2016 (GMT -0500)
Gen Lucio Blanco

Weather History for MMRX - October, 2012

Change the Weather History Date:

Wednesday, October 24, 2012

  Actual Average Record
Temperature  
Mean Temperature 81 °F -  
Max Temperature 91 °F 84 °F 100 °F (2001)
Min Temperature 71 °F 64 °F 53 °F (2007)
Cooling Degree Days 16    
Growing Degree Days 31 (Base 50)    
Moisture  
Dew Point 64 °F    
Average Humidity 59    
Maximum Humidity 83    
Minimum Humidity 38    
Precipitation  
Precipitation 0.00 in - - ()
Sea Level Pressure  
Sea Level Pressure 29.89 in    
Wind  
Wind Speed 7 mph ()    
Max Wind Speed 12 mph    
Max Gust Speed -    
Visibility 9.5 miles    
Events      
Averages and records for this station are not official NWS values.
T = Trace of Precipitation, MM = Missing Value Source: Averaged Metar Reports

Daily Weather History Graph

Daily Weather History Graph

Search for Another Location

Airport or City:

Trip Planner

Search our weather history database for the weather conditions in past years. The results will help you decide how hot, cold, wet, or windy it might be!

Date:

Astronomy

Oct. 24, 2012 Rise Set
Actual Time 7:37 AM CDT 6:56 PM CDT
Civil Twilight 7:13 AM CDT 7:20 PM CDT
Nautical Twilight 6:46 AM CDT 7:47 PM CDT
Astronomical Twilight 6:19 AM CDT 8:14 PM CDT
Moon 3:49 PM CDT (10/24) 3:01 AM CDT (10/24)
Length of Visible Light 12h 06m
Length of Day
11h 19m
Waxing Gibbous, 76% of the Moon is Illuminated
Oct 24
Waxing Gibbous
Oct 29
Full
Nov 6
Last Quarter
Nov 13
New
Nov 20
First Quarter

Hourly Weather History & Observations

Time (CDT) Temp. Heat Index Dew Point Humidity Pressure Visibility Wind Dir Wind Speed Gust Speed Precip Events Conditions
5:21 AM 71.6 °F - 66.2 °F 83% 29.90 in 8.0 mi ESE 2.3 mph - N/A   Scattered Clouds
5:46 AM 71.6 °F - 66.2 °F 83% 29.91 in 8.0 mi ESE 5.8 mph - N/A   Scattered Clouds
6:46 AM 71.6 °F - 66.2 °F 83% 29.94 in 8.0 mi SE 5.8 mph - N/A   Scattered Clouds
7:52 AM 71.6 °F - 66.2 °F 83% 29.92 in 8.0 mi ESE 9.2 mph - N/A   Partly Cloudy
8:46 AM 77.0 °F - 66.2 °F 69% 29.93 in 8.0 mi SE 10.4 mph - N/A   Partly Cloudy
9:48 AM 80.6 °F 82.7 °F 66.2 °F 61% 29.98 in 10.0 mi SE 9.2 mph - N/A   Clear
10:44 AM 84.2 °F 85.6 °F 64.4 °F 51% 29.94 in 10.0 mi SE 9.2 mph - N/A   Clear
11:45 AM 86.0 °F 86.6 °F 62.6 °F 45% 29.94 in 10.0 mi SSE 10.4 mph - N/A   Scattered Clouds
12:46 PM 89.6 °F 91.1 °F 64.4 °F 43% 29.94 in 10.0 mi East 11.5 mph - N/A   Mostly Cloudy
1:41 PM 89.6 °F 90.1 °F 62.6 °F 40% 29.88 in 10.0 mi SE 8.1 mph - N/A   Mostly Cloudy
2:41 PM 89.6 °F 90.1 °F 62.6 °F 40% 29.85 in 10.0 mi ESE 9.2 mph - N/A   Mostly Cloudy
3:54 PM 91.4 °F 92.1 °F 62.6 °F 38% 29.84 in 10.0 mi SE 11.5 mph - N/A   Scattered Clouds
4:40 PM 89.6 °F 89.5 °F 60.8 °F 38% 29.83 in 10.0 mi SE 11.5 mph - N/A   Scattered Clouds
5:44 PM 87.8 °F 87.6 °F 60.8 °F 40% 29.82 in 10.0 mi ESE 11.5 mph - N/A   Partly Cloudy
7:44 PM 82.4 °F 82.9 °F 60.8 °F 48% 29.85 in 10.0 mi SSE 9.2 mph - N/A   Clear
8:50 PM 78.8 °F - 66.2 °F 65% 29.87 in 10.0 mi SSE 11.5 mph - N/A   Clear
9:47 PM 78.8 °F - 68.0 °F 69% 29.90 in 10.0 mi SE 11.5 mph - N/A   Clear
10:41 PM 77.0 °F - 66.2 °F 69% 29.88 in 10.0 mi SE 6.9 mph - N/A   Clear
11:42 PM 75.2 °F - 66.2 °F 73% 29.88 in 10.0 mi SE 5.8 mph - N/A   Clear